2022-153A

Last updated on Wed Dec 14 2022 00:02:52 GMT+0000 (Coordinated Universal Time)

1 54243U 22153A 22347.50420807 .00000149 00000+0 00000+0 0 9997 2 54243 0.0557 121.5314 0002351 187.6240 165.5910 1.00273019 294

Satellite not in orbit

2022-153A